Regional Weather Roundup
Issued by NWS

Home | Current Version | Previous Version | Graphics & Text | Print | Product List | Glossary On
Versions: 1 2 3 4 5 6 7 8 9 10 11 12 13 14 15 16 17 18 19 20 21 22 23 24 25 26 27 28 29 30 31 32 33 34 35 36 37 38 39 40 41 42 43 44 45 46 47 48 49 50
000
ASUS43 KLOT 281403
RWRIL

ILLINOIS REGIONAL WEATHER ROUNDUP
NATIONAL WEATHER SERVICE CHICAGO/ROMEOVILLE IL
900 AM CDT SUN AUG 28 2016

NOTE: "FAIR" INDICATES FEW OR NO CLOUDS BELOW 12,000 FEET WITH NO
SIGNIFICANT WEATHER AND/OR OBSTRUCTIONS TO VISIBILITY.

* THESE STATIONS ARE NOT UNDER NWS QUALITY CONTROL. THEY ALSO MAY NOT
  REPORT WEATHER SUCH AS PRECIPITATION OR FOG.

ILZ001-002-007-009-015-016-024-281500-
NORTHWEST ILLINOIS

CITY           SKY/WX    TMP DP  RH WIND       PRES   REMARKS
MOLINE         SUNNY     74  70  87 CALM      30.18R
STERLING*      PTSUNNY   75  73  93 E3        30.19R
SAVANNA*       MOSUNNY   74  71  88 CALM      30.20R
$$

ILZ003-004-008-010-011-017-018-281500-
NORTH CENTRAL ILLINOIS

CITY           SKY/WX    TMP DP  RH WIND       PRES   REMARKS
ROCKFORD       PTSUNNY   76  68  76 E6        30.21R
FREEPORT*      MOSUNNY   71  70  98 E6        30.23R
ROCHELLE*      MOSUNNY   74  72  93 CALM      30.21R
$$

ILZ005-006-012>014-019>023-281500-
NORTHEAST ILLINOIS

CITY           SKY/WX    TMP DP  RH WIND       PRES   REMARKS
CHICAGO-OHARE  MOSUNNY   76  70  82 E6        30.19S
CHICAGO-MIDWAY PTSUNNY   79  70  74 NE10      30.19S HX  82
AURORA         SUNNY     78  71  79 NE6       30.20R HX  80
LANSING*       SUNNY     76  74  92 CALM      30.19S
JOLIET*        MOSUNNY   78  74  86 CALM      30.19S HX  81
WAUKEGAN       PTSUNNY   74  67  78 E5        30.21R
DUPAGE AIRPORT PTSUNNY   76  69  79 E8        30.20R
KANKAKEE*      SUNNY     77  72  86 CALM      30.19S
WHEELING       CLOUDY    75  71  87 E5        30.21R
MORRIS*        MOSUNNY   77  73  88 CALM      30.17S
ROMEOVILLE*    MOSUNNY   77  76  96 E3        30.19S
$$

LMZ740>746-281500-
SOUTHERN LAKE MICHIGAN

STATION/POSITION SKY/WX   TEMP    WIND        PRES    VSBY  WAVE
                          AIR SEA DIR/SP/G                  HT/PER
                          (F)     (DEG/KT/KT) (MB)    (MI)  (FT/S)
SOUTHERN BUOY              73 74   40/  6/  8 1021.6          1
WILMETTE HARBOR            71 70  170/  2/  2   N/A           0
HARRISON CRIB              74      60/  4/  4   N/A
BURNHAM HARBOR             76      30/  5/  6   N/A
CALUMET HARBOR             74     350/  2/  3 1021.7R
BURNS HARBOR               73      CALM  /  1 1022.4R
MICHIGAN CITY              74     210/  2/  2   N/A
MICHIGAN CITY 6N           76 76  260/  2/  2   N/A           0
ST. JOSEPH                 74 75   10/  8/ 10 1022.0R         1
$$

ILZ025>027-034>036-040-047-049-050-058-095>099-281500-
WEST-CENTRAL ILLINOIS

CITY           SKY/WX    TMP DP  RH WIND       PRES   REMARKS
QUINCY         MOSUNNY   75  73  93 E6        30.16S
GALESBURG*     SUNNY     74  71  90 S6        30.19R
MACOMB*        MOSUNNY   76  74  95 CALM      30.20S
JACKSONVILLE*  CLOUDY    79  74  83 S5        30.15F HX  83
PITTSFIELD*    PTSUNNY   77  73  88 CALM      30.18S
$$

ILZ028>032-037-038-041>044-048-051>054-059>061-281500-
CENTRAL ILLINOIS

CITY           SKY/WX    TMP DP  RH WIND       PRES   REMARKS
PONTIAC        PTSUNNY   77  75  93 CALM      30.19S
BLOOMINGTON    CLOUDY    75  73  93 SW3       30.20R
DECATUR        CLOUDY    76  73  91 SE3       30.19R
PEORIA         LGT RAIN  74  73  97 CALM      30.18R
LACON*         SUNNY     77  73  86 SW3       30.18R
LINCOLN*       CLOUDY    72  72  98 SE3       30.17S
SPRINGFIELD    NOT AVBL
TAYLORVILLE    SUNNY     78  73  85 NE3       30.18S
$$

ILZ033-039-045-046-055>057-062-063-281500-
EAST-CENTRAL ILLINOIS

CITY           SKY/WX    TMP DP  RH WIND       PRES   REMARKS
CHAMPAIGN      PTSUNNY   75  73  93 CALM      30.20R
RANTOUL*       CLOUDY    76  74  93 CALM      30.19S
MATTOON        MOSUNNY   79  73  82 CALM      30.19R HX  82
PARIS*         SUNNY     79  77  93 CALM      30.20S HX  84
$$

ILZ079-100>102-281500-
SOUTHWEST ILLINOIS

CITY           SKY/WX    TMP DP  RH WIND       PRES   REMARKS
ALTON          MOSUNNY   77  75  94 VRB3      30.17S
BELLEVILLE     SUNNY     80  78  95 E7        30.16R HX  85
CAHOKIA*       SUNNY     82  73  74 CALM      30.16R HX  87
SPARTA*        SUNNY     79  75  85 CALM      30.18S HX  83
$$

ILZ064>066-069>071-074>076-080>082-084>086-088>090-092>094-281500-
SOUTH-CENTRAL ILLINOIS

CITY           SKY/WX    TMP DP  RH WIND       PRES   REMARKS
CARBONDALE     SUNNY     80  75  84 CALM      30.17R HX  85
EFFINGHAM*     SUNNY     80  79  95 E3        30.20R HX  88
MARION         SUNNY     81  77  89 CALM      30.18R HX  88
MT. VERNON     SUNNY     81  72  74 NE3       30.19R HX  84
CENTRALIA*     SUNNY     82  79  89 CALM      30.17S HX  93
SALEM*         SUNNY     83  76  80 SE3       30.18S HX  91
METROPOLIS*    SUNNY     81  74  81 CALM      30.17R HX  86
$$

ILZ067-068-072-073-078-083-087-091-281500-
SOUTHEAST ILLINOIS

CITY           SKY/WX    TMP DP  RH WIND       PRES   REMARKS
LAWRENCEVILLE  SUNNY     81  77  88 CALM      30.19R HX  88
FLORA*         SUNNY     82  77  85 CALM      30.18F HX  89
FAIRFIELD*     SUNNY     82  76  84 CALM      30.17S HX  89
HARRISBURG*    SUNNY     79  77  93 CALM      30.17S HX  84
ROBINSON*      SUNNY     78  76  93 CALM      30.19S HX  80
CARMI*         SUNNY     82  77  86 CALM      30.17R HX  90
$$

ABBREVIATIONS USED IN REMARKS
   TC - TEMPERATURE IN CELSIUS
  WCI - WIND CHILL INDEX
   HX - HEAT INDEX
  VSB - VISIBILITY
$$





USA.gov is the U.S. government's official web portal to all federal, state and local government web resources and services.